Regional Weather Roundup
Issued by NWS

Home | Current Version | Previous Version | Text Only | Print | Product List | Glossary On
Versions: 1 2 3 4 5 6 7 8 9 10 11 12 13 14 15 16 17 18 19 20 21 22 23 24 25 26 27 28 29 30 31 32 33 34 35 36 37 38 39 40 41 42 43 44 45 46 47 48 49 50
000
ASUS43 KOAX 300110
RWRNE

WEATHER ROUNDUP FOR NEBRASKA
NATIONAL WEATHER SERVICE OMAHA NE
800 PM CDT SAT AUG 29 2015

NOTES: SATELLITE DATA IS BEING USED TO AUGMENT CLOUD COVER ABOVE
       12000 FEET.
       "FAIR" INDICATES FEW OR NO CLOUDS BELOW 12,000 FEET WITH NO
       SIGNIFICANT WEATHER AND/OR OBSTRUCTIONS TO VISIBILITY.

  * THESE STATIONS DO NOT REPORT WEATHER SUCH AS RAIN...SNOW OR FOG.

NEZ001>004-019>022-054>056-300200-
NEBRASKA PANHANDLE

CITY           SKY/WX    TMP DP  RH WIND       PRES   REMARKS
SCOTTSBLUFF    CLEAR     82  41  23 SE8       30.02S HAZE
ALLIANCE       CLEAR     78  45  30 S9        30.03F
CHADRON        CLEAR     85  44  23 S10       29.95S HAZE
KIMBALL        CLEAR     76  44  32 S7        30.10S
SIDNEY         CLEAR     82  42  24 SE9       30.08F
$$

NEZ057>060-069>072-079>082-300200-
SOUTHWEST NEBRASKA

CITY           SKY/WX    TMP DP  RH WIND       PRES   REMARKS
NORTH PLATTE   CLEAR     74  65  73 E9        30.03S
IMPERIAL       CLEAR     80  53  39 SE10      30.05S
LEXINGTON      CLEAR     77  66  69 SE6       30.05R
MCCOOK         PTCLDY    80  56  43 E10       30.04S
OGALLALA       CLEAR     83  51  33 SE7       30.04S
$$

NEZ005>010-023>029-035>040-094-300200-
NORTH CENTRAL NEBRASKA

CITY           SKY/WX    TMP DP  RH WIND       PRES   REMARKS
VALENTINE      CLEAR     83  56  39 S8        29.97S
AINSWORTH      CLEAR     78  61  56 SE7       29.99S
BROKEN BOW     CLEAR     78  64  61 SE6       30.04R
O`NEILL        CLEAR     76  62  62 S8        30.00S
ORD            CLEAR     78  61  55 SE8       30.01S
THEDFORD       CLEAR     82  57  43 S9        30.03S
$$

NEZ041-046>049-061>064-073>077-083>087-300200-
SOUTH CENTRAL NEBRASKA

CITY           SKY/WX    TMP DP  RH WIND       PRES   REMARKS
GRAND ISLAND   CLEAR     72  65  78 SE5       30.04S
AURORA         CLEAR     71  67  88 SE3       30.04S
HASTINGS       CLEAR     73  62  68 SE6       30.04S
HEBRON         PTCLDY    71  63  75 SE5       30.03S
HOLDREGE       CLEAR     73  63  72 SE6       30.05S
KEARNEY *      CLEAR     73  63  68 SE6       30.04S
YORK           CLEAR     68  66  94 CALM      30.04S
$$

NEZ011>018-030>034-042>045-300200-
NORTHEAST NEBRASKA

CITY           SKY/WX    TMP DP  RH WIND       PRES   REMARKS
NORFOLK        CLEAR     71  66  84 SE5       30.01F
ALBION         CLEAR     71  66  85 SE5       30.02F
BLAIR          MOCLDY    67  62  81 CALM      30.04S
COLUMBUS *     PTCLDY   N/A N/A N/A E6        30.02S
FREMONT        PTCLDY    66  62  87 SE3       30.04S
TEKAMAH        PTCLDY    66  64  93 SW3       30.03S
WAYNE          PTCLDY    69  66  90 SE5       30.02S
$$

NEZ050>053-065>068-078-088>093-300200-
SOUTHEAST NEBRASKA

CITY           SKY/WX    TMP DP  RH WIND       PRES   REMARKS
LINCOLN        PTCLDY    68  62  81 E6        30.05R
OMAHA EPPLEY   CLOUDY    69  65  86 CALM      30.03S
BEATRICE       PTCLDY    65  62  89 E3        30.04S
FALLS CITY     CLEAR     65  62  90 CALM      30.03S
NEBRASKA CITY  CLOUDY    66  64  93 CALM      30.04S
PLATTSMOUTH    CLOUDY    66  62  86 CALM      30.04S
$$

NEZ044-045-051>053-067-300200-
OMAHA AREA

CITY           SKY/WX    TMP DP  RH WIND       PRES   REMARKS
OMAHA EPPLEY   CLOUDY    69  65  86 CALM      30.03S
BLAIR          MOCLDY    67  62  81 CALM      30.04S
FREMONT        PTCLDY    66  62  87 SE3       30.04S
MILLARD        PTCLDY    68  63  82 CALM      30.04R
OFFUTT AFB     MOCLDY    68  63  83 SW3       30.03R
PLATTSMOUTH    CLOUDY    66  62  86 CALM      30.04S
WAHOO          FAIR      65  63  92 SE3       30.04S
$$




USA.gov is the U.S. government's official web portal to all federal, state and local government web resources and services.